CW3816 Weather Reports


time (UTC)temp
F
wind
direction
speed
knots
gust
knots
rain 1hr
in
rain 24hr
in
rain mn
in
humidity
%
barometer
mb
20260505220352 82 7 0.9 0.0 0.00 0.00 0.00 25 1009.1
20260505214853 81 89 0.9 0.0 0.00 0.00 0.00 23 1009.2
20260505213414 81 168 0.0 0.0 0.00 0.00 0.00 24 1009.3
20260505211850 81 237 0.9 0.0 0.00 0.00 0.00 23 1009.5
20260505210340 83 184 0.9 0.0 0.00 0.00 0.00 21 1009.3
20260505204853 84 52 0.0 0.0 0.00 0.00 0.00 22 1009.4
20260505203354 85 181 0.9 0.0 0.00 0.00 0.00 22 1009.3
20260505201846 85 227 0.0 0.0 0.00 0.00 0.00 21 1009.3
20260505200411 86 35 0.0 0.0 0.00 0.00 0.00 22 1009.3
20260505194843 86 76 0.0 0.0 0.00 0.00 0.00 23 1009.6
20260505193345 86 80 0.9 0.0 0.00 0.00 0.00 21 1009.7
20260505191847 86 28 0.9 0.0 0.00 0.00 0.00 23 1010.0
20260505190407 86 224 0.9 0.0 0.00 0.00 0.00 24 1010.3
20260505184843 86 48 0.0 0.0 0.00 0.00 0.00 23 1010.5
20260505183343 87 136 0.0 0.0 0.00 0.00 0.00 25 1010.6
20260505181843 86 138 0.9 0.0 0.00 0.00 0.00 24 1010.7
20260505180346 86 178 0.9 0.0 0.00 0.00 0.00 25 1010.9
20260505174840 86 319 0.0 0.0 0.00 0.00 0.00 24 1011.0
20260505173404 86 222 0.0 0.0 0.00 0.00 0.00 25 1011.1
20260505171840 86 128 0.0 0.0 0.00 0.00 0.00 25 1011.2
20260505170401 85 222 0.0 0.0 0.00 0.00 0.00 27 1011.5
20260505164856 86 205 0.0 0.0 0.00 0.00 0.00 26 1011.6
20260505163343 85 144 0.0 0.0 0.00 0.00 0.00 27 1011.9
20260505161903 83 88 0.0 0.0 0.00 0.00 0.00 33 1012.2
20260505160402 83 215 0.0 0.0 0.00 0.00 0.00 30 1012.3
20260505153347 81 68 0.0 0.0 0.00 0.00 0.00 34 1012.6
20260505151903 80 102 0.0 0.0 0.00 0.00 0.00 32 1012.4
20260505150349 79 164 0.0 0.0 0.00 0.00 0.00 36 1012.4
20260505140418 74 144 0.0 0.0 0.00 0.00 0.00 39 1012.5
20260505124842 65 89 0.0 0.0 0.00 0.00 0.00 54 1012.7
20260505123343 63 100 0.0 0.0 0.00 0.00 0.00 55 1012.7
20260505121857 62 229 0.0 0.0 0.00 0.00 0.00 57 1012.6
20260505120403 61 258 0.0 0.0 0.00 0.00 0.00 58 1012.5
20260505114838 60 134 0.0 0.0 0.00 0.00 0.00 59 1012.3
20260505113402 60 157 0.0 0.0 0.00 0.00 0.00 60 1012.3
20260505111842 59 275 0.0 0.0 0.00 0.00 0.00 64 1012.2
20260505110345 58 298 0.0 0.0 0.00 0.00 0.00 64 1012.1
20260505101900 58 298 0.0 0.0 0.00 0.00 0.00 62 1011.8
20260505100343 59 205 0.0 0.0 0.00 0.00 0.00 60 1011.7
20260505094846 59 196 0.0 0.0 0.00 0.00 0.00 60 1011.7
20260505093354 59 275 0.0 0.0 0.00 0.00 0.00 59 1011.7
20260505091908 59 178 0.0 0.0 0.00 0.00 0.00 58 1011.8
20260505090408 60 261 0.0 0.0 0.00 0.00 0.00 58 1011.7
20260505084843 60 301 0.0 0.0 0.00 0.00 0.00 58 1011.6
20260505083348 60 301 0.0 0.0 0.00 0.00 0.00 57 1011.5
20260505081848 60 162 0.0 0.0 0.00 0.00 0.00 59 1011.3
20260505080348 60 261 0.0 0.0 0.00 0.00 0.00 57 1011.3
20260505074849 60 261 0.0 0.0 0.00 0.00 0.00 58 1011.2
20260505073352 61 261 0.0 0.0 0.00 0.00 0.00 54 1011.2
20260505071847 62 270 0.0 0.0 0.00 0.00 0.00 54 1011.2
20260505070354 62 267 0.0 0.0 0.00 0.00 0.00 52 1011.1
20260505064855 62 241 0.0 0.0 0.00 0.00 0.00 52 1011.0
20260505063357 63 260 0.0 0.0 0.00 0.00 0.00 54 1011.1
20260505061858 62 323 0.0 0.0 0.00 0.00 0.00 53 1010.8
20260505060419 59 229 0.0 0.0 0.00 0.00 0.00 58 1010.9
20260505054858 58 229 0.0 0.0 0.00 0.00 0.00 65 1010.8
20260505053401 58 229 0.0 0.0 0.00 0.00 0.00 68 1010.8
20260505051844 58 229 0.0 0.0 0.00 0.00 0.00 68 1010.7
20260505050344 58 229 0.0 0.0 0.00 0.00 0.00 67 1010.7
20260505040408 61 229 0.0 0.0 0.00 0.00 0.00 64 1010.4
20260505034844 62 229 0.0 0.0 0.00 0.00 0.00 60 1010.6
20260505033348 63 229 0.0 0.0 0.00 0.00 0.00 58 1010.6
20260505031846 64 229 0.0 0.0 0.00 0.00 0.00 54 1010.6
20260505030345 65 229 0.0 0.0 0.00 0.00 0.00 52 1010.8
20260505024847 65 229 0.0 0.0 0.00 0.00 0.00 50 1010.9
20260505023346 66 229 0.0 0.0 0.00 0.00 0.00 50 1010.8
20260505021901 66 230 0.0 0.0 0.00 0.00 0.00 52 1010.7
20260505020421 67 232 0.0 0.0 0.00 0.00 0.00 49 1010.8
20260505014843 67 232 0.0 0.0 0.00 0.00 0.00 48 1010.5
20260505013347 68 232 0.0 0.0 0.00 0.00 0.00 46 1010.4
20260505011846 69 232 0.0 0.0 0.00 0.00 0.00 45 1010.3
20260505010411 70 233 0.0 0.0 0.00 0.00 0.00 42 1010.3
20260505004850 70 233 0.0 0.0 0.00 0.00 0.00 41 1009.9
20260505003353 71 260 0.0 0.0 0.00 0.00 0.00 40 1010.0
20260505001912 72 150 0.0 0.0 0.00 0.00 0.00 36 1010.0
20260505000355 72 179 0.0 0.0 0.00 0.00 0.00 37 1009.8
20260504234852 73 239 0.0 0.0 0.00 0.00 0.00 35 1009.7
20260504233351 73 210 0.0 0.0 0.00 0.00 0.00 33 1009.6
20260504231853 74 263 0.0 0.0 0.00 0.00 0.00 33 1009.6
20260504230352 74 261 0.0 0.0 0.00 0.00 0.00 32 1009.6
20260504224849 75 16 0.0 0.0 0.00 0.00 0.00 32 1009.6
20260504223356 75 56 0.0 0.0 0.00 0.00 0.00 32 1009.5
20260504221855 75 224 0.0 0.0 0.00 0.00 0.00 31 1009.5